Barrow, AK

6:27 PM AKDT on August 24, 2016 (GMT -0800)
Wiley Post-Will Rogers Memorial

Weather History for PABR - March, 2013

Change the Weather History Date:

Friday, March 22, 2013

  Actual Average Record
Temperature  
Mean Temperature -19 °F -12 °F  
Max Temperature -11 °F -5 °F 27 °F (2002)
Min Temperature -26 °F -19 °F -38 °F (1966)
Degree Days  
Heating Degree Days 84 77  
Month to date heating degree days 1599 1729  
Since 1 July heating degree days 13564 14577  
Cooling Degree Days 0    
Month to date cooling degree days 0  
Year to date cooling degree days 0  
Moisture  
Dew Point -22 °F    
Average Humidity 0    
Maximum Humidity 0    
Minimum Humidity 0    
Precipitation  
Precipitation T in 0.00 in 0.12 in (1938)
Month to date precipitation 0.05 0.06  
Year to date precipitation 0.18 0.33  
Snow  
Snow 0.10 in 0.10 in 2.50 in (1938)
Month to date snowfall 2.2 1.5  
Since 1 July snowfall 46.2 30.5  
Snow Depth 6.00 in    
Sea Level Pressure  
Sea Level Pressure 30.19 in    
Wind  
Wind Speed 7 mph (ENE)    
Max Wind Speed 15 mph    
Max Gust Speed 16 mph    
Visibility 8 miles    
Events Snow    
T = Trace of Precipitation, MM = Missing Value Source: NWS Daily Summary

Daily Weather History Graph

Daily Weather History Graph

Search for Another Location

Airport or City:

Trip Planner

Search our weather history database for the weather conditions in past years. The results will help you decide how hot, cold, wet, or windy it might be!

Date:

Astronomy

Mar. 22, 2013 Rise Set
Actual Time 8:13 AM AKDT 8:57 PM AKDT
Civil Twilight 7:07 AM AKDT 10:03 PM AKDT
Nautical Twilight 5:39 AM AKDT 11:33 PM AKDT
Astronomical Twilight 3:06 AM AKDT 2:01 AM AKDT
Moon 2:02 PM AKDT (3/22) 8:00 AM AKDT (3/22)
Length of Visible Light 14h 56m
Length of Day
12h 43m
Waxing Gibbous, 78% of the Moon is Illuminated
Mar 22
Waxing Gibbous
Mar 27
Full
Apr 2
Last Quarter
Apr 10
New
Apr 18
First Quarter

Hourly Weather History & Observations

Time (AKDT) Temp. Windchill Dew Point Humidity Pressure Visibility Wind Dir Wind Speed Gust Speed Precip Events Conditions
12:53 AM -15.0 °F -34.8 °F -20.0 °F 78% 30.26 in 8.0 mi NE 10.4 mph - 0.00 in Snow Light Snow
1:36 AM -14.8 °F -34.6 °F -20.2 °F 77% 30.26 in 2.5 mi NE 10.4 mph - 0.00 in Snow Light Snow
1:53 AM -15.0 °F -33.7 °F -20.9 °F 75% 30.27 in 3.0 mi NNE 9.2 mph - 0.00 in Snow Light Snow
2:16 AM -16.6 °F -32.9 °F -20.2 °F 84% 30.26 in 8.0 mi NE 6.9 mph - 0.00 in Snow Light Snow
2:53 AM -17.0 °F -36.1 °F -22.0 °F 78% 30.27 in 9.0 mi NE 9.2 mph - 0.00 in Snow Light Snow
3:53 AM -17.0 °F -37.3 °F -22.0 °F 78% 30.26 in 10.0 mi NE 10.4 mph - 0.00 in   Mostly Cloudy
4:53 AM -18.0 °F -34.7 °F -22.0 °F 82% 30.26 in 10.0 mi NE 6.9 mph - N/A   Mostly Cloudy
5:53 AM -18.9 °F -35.8 °F -23.1 °F 81% 30.26 in 10.0 mi NE 6.9 mph - N/A   Scattered Clouds
6:53 AM -22.0 °F -41.0 °F -26.0 °F 82% 30.25 in 10.0 mi ENE 8.1 mph - N/A   Clear
7:53 AM -20.9 °F -38.1 °F -25.1 °F 81% 30.25 in 10.0 mi ENE 6.9 mph - N/A   Partly Cloudy
8:53 AM -18.9 °F -35.8 °F -23.1 °F 81% 30.25 in 8.0 mi ENE 6.9 mph - N/A   Partly Cloudy
9:53 AM -20.0 °F -35.3 °F -23.1 °F 86% 30.24 in 8.0 mi NE 5.8 mph - N/A   Mostly Cloudy
9:55 AM -18.4 °F -33.4 °F -23.8 °F 76% 30.23 in 8.0 mi NE 5.8 mph - N/A   Scattered Clouds
10:53 AM -18.0 °F - -18.9 °F 96% 30.22 in 8.0 mi Calm Calm - N/A   Scattered Clouds
11:33 AM -18.4 °F - -18.4 °F 100% 30.21 in 3.0 mi Calm Calm - N/A   Mostly Cloudy
11:53 AM -20.0 °F - -20.9 °F 96% 30.21 in 7.0 mi Calm Calm - N/A   Scattered Clouds
12:53 PM -13.0 °F -27.0 °F -18.0 °F 78% 30.21 in 10.0 mi NW 5.8 mph - N/A   Clear
1:53 PM -13.0 °F -28.6 °F -18.0 °F 78% 30.20 in 10.0 mi NNW 6.9 mph - N/A   Clear
2:53 PM -11.9 °F -23.8 °F -18.0 °F 74% 30.19 in 10.0 mi NW 4.6 mph - N/A   Clear
3:53 PM -18.0 °F -33.0 °F -22.0 °F 82% 30.17 in 10.0 mi SSW 5.8 mph - N/A   Scattered Clouds
4:53 PM -18.0 °F -28.5 °F -20.9 °F 87% 30.15 in 10.0 mi South 3.5 mph - N/A   Mostly Cloudy
5:53 PM -18.0 °F -33.0 °F -22.0 °F 82% 30.13 in 10.0 mi South 5.8 mph - N/A   Scattered Clouds
6:53 PM -20.0 °F -33.3 °F -24.0 °F 82% 30.11 in 10.0 mi South 4.6 mph - N/A   Clear
7:53 PM -20.0 °F -33.3 °F -24.0 °F 82% 30.10 in 10.0 mi SW 4.6 mph - N/A   Mostly Cloudy
8:53 PM -20.0 °F -42.2 °F -25.1 °F 78% 30.09 in 10.0 mi SSW 11.5 mph - N/A   Scattered Clouds
9:17 PM -20.2 °F -43.4 °F -25.6 °F 76% 30.07 in 4.0 mi South 12.7 mph - 0.00 in Snow Light Snow
9:53 PM -20.9 °F -43.3 °F -25.1 °F 81% 30.07 in 10.0 mi South 11.5 mph - 0.00 in   Mostly Cloudy
10:53 PM -23.1 °F -46.0 °F -27.0 °F 82% 30.06 in 10.0 mi South 11.5 mph - N/A   Scattered Clouds
11:53 PM -25.1 °F -48.5 °F -29.0 °F 82% 30.05 in 10.0 mi South 11.5 mph - N/A   Clear